Regional Weather Roundup
Issued by NWS Mt. Holly, NJ

Home | Current Version | Previous Version | Text Only | Print | Product List | Glossary On
Versions: 1 2 3 4 5 6 7 8 9 10 11 12 13 14 15 16 17 18 19 20 21 22 23 24 25 26 27 28 29 30 31 32 33 34 35 36 37 38 39 40 41 42 43 44 45 46 47 48 49 50
293
ASUS41 KPHI 241012
RWRPHI

REGIONAL WEATHER ROUNDUP
NATIONAL WEATHER SERVICE MOUNT HOLLY NJ
500 AM EST WED JAN 24 2018

NOTE:  "FAIR" INDICATES FEW OR NO CLOUDS BELOW 12,000 FEET WITH NO
SIGNIFICANT WEATHER AND/OR OBSTRUCTIONS TO VISIBILITY.

 * = STATION DOES NOT REPORT PRECIPITATION (E.G. RAIN, SNOW, ETC.)
        OR FOG.

NJZ015>026-241100-
SOUTHERN NEW JERSEY

CITY           SKY/WX    TMP DP  RH WIND       PRES   REMARKS
POMONA         CLOUDY    43  32  65 SW10      29.89R
WILDWOOD*      FAIR      40  31  70 W12       29.93R WCI  33
MILLVILLE      CLOUDY    41  32  70 W7        29.91R
WRIGHTSTOWN    CLOUDY    42  30  62 W12G22    29.83R
MOUNT HOLLY    CLOUDY    44  30  57 W10G24    29.87R
TRENTON        MOCLDY    39  30  70 SW5       29.83R

$$
NJZ001>014-241100-
NORTHERN NEW JERSEY

CITY           SKY/WX    TMP DP  RH WIND       PRES   REMARKS
SUSSEX         CLOUDY    41  27  57 W8        29.78R
ANDOVER*         N/A     40  27  59 VRB6      29.79R
MORRISTOWN     CLOUDY    41  30  65 W8        29.80R
NEWARK         CLOUDY    42  29  59 SW13      29.80R
TETERBORO      CLOUDY    43  29  57 W14G21    29.78R
CALDWELL       CLOUDY    42  29  59 W6        29.79R
SOMERVILLE     FAIR      41  30  65 VRB7      29.81R
ALLAIRE*       FAIR      37  30  75 SW7       29.84R WCI  32
TOMS RIVER*    FAIR      32  30  92 SW8       29.87R WCI  25

$$
PAZ043-044-047-054-055-060>062-066>071-241100-
EASTERN PENNSYLVANIA

CITY           SKY/WX    TMP DP  RH WIND       PRES   REMARKS
PHILADELPHIA   CLOUDY    43  30  60 SW13      29.89R
NORTH PHILA    CLOUDY    45  30  55 W18G25    29.87R
BLUE BELL*     CLOUDY    41  30  65 W15G24    29.87S
DOYLESTOWN     CLOUDY    41  29  62 W10       29.83R
PERKASIE*      CLOUDY    39  28  65 W13       29.85R WCI  32
POTTSTOWN      CLOUDY    41  27  57 W13G26    29.88R
LANCASTER      CLOUDY    42  29  59 NW18G29   29.87R
COATESVILLE    CLOUDY    43  28  56 NW20G28   29.88R
READING        CLOUDY    42  31  64 W13G23    29.87R
ALLENTOWN      CLOUDY    41  28  60 W13G22    29.84R
MOUNT POCONO   CLOUDY    32  26  78 W24G35    29.74R WCI  19
HAZLETON       CLOUDY    34  28  80 W6G21     29.84R WCI  29
LEHIGHTON      CLOUDY    39  28  65 W8G16     29.85R WCI  34
WILKES BARRE   LGT SNOW  35  29  78 NW17G24   29.82R WCI  25

$$
DEZALL-MDZ008-012-015-019-020-241100-
DELAWARE AND EASTERN MARYLAND

CITY           SKY/WX    TMP DP  RH WIND       PRES   REMARKS
WILMINGTON     CLOUDY    44  31  60 W9        29.90R
DOVER          MOCLDY    40  33  78 SW7       29.92R WCI  35
GEORGETOWN     FAIR      42  29  59 SW7       29.95R
EASTON         FAIR      43  30  59 W6        29.99R
PATUXENT       FAIR      39  28  64 W6        29.97R WCI  35
OCEAN CITY     FAIR      44  30  57 NW9       29.96R
WALLOPS ISLAND FAIR      37  32  82 W3        29.98R
CAMBRIDGE      CLEAR     43  28  56 W5        29.97R
SALISBURY      FAIR      44  29  55 W9        29.96R

$$
PAZ001-021-NYZ056-072-MDZ011-DCZ001-241100-
OTHER NEARBY LOCATIONS

CITY           SKY/WX    TMP DP  RH WIND       PRES   REMARKS
HARRISBURG     CLOUDY    41  28  60 NW17      29.90R
STATE COLLEGE  CLOUDY    32  26  77 W15G22    29.93R WCI  22
WILLIAMSPORT   CLOUDY    37  26  64 W15       29.89R WCI  28
BINGHAMTON     CLOUDY    27  21  78 NW16G25   29.80R WCI  15
NEW YORK CITY  CLOUDY    43  29  57 W10       29.80R
BALTIMORE      FAIR      42  30  62 SW6       29.94R
WASHINGTON DC  FAIR      45  28  51 W7        29.98R

$$




USA.gov is the U.S. government's official web portal to all federal, state and local government web resources and services.